Regional Weather Roundup
Issued by NWS

Home | Current Version | Previous Version | Text Only | Print | Product List | Glossary Off
Versions: 1 2 3 4 5 6 7 8 9 10 11 12 13 14 15 16 17 18 19 20 21 22 23 24 25 26 27 28 29 30 31 32 33 34 35 36 37 38 39 40 41 42 43 44 45 46 47 48 49 50

000
ASUS43 KFSD 230910
RWRSD

WEATHER ROUNDUP FOR SOUTH DAKOTA
NATIONAL WEATHER SERVICE SIOUX FALLS SD
400 AM CDT WED APR 23 2014

NOTE: "FAIR" INDICATES FEW OR NO CLOUDS BELOW 12,000 FEET WITH NO
SIGNIFICANT WEATHER AND/OR OBSTRUCTIONS TO VISIBILITY.


SDZ001>005-009-010-012>017-231000-
NORTHWEST AND NORTH CENTRAL SOUTH DAKOTA

CITY           SKY/WX    TMP DP  RH WIND       PRES   REMARKS
BUFFALO          N/A     57  44  62 SE15      29.34F
MOBRIDGE       CLOUDY    54  33  45 SE25G33   29.58F
$$

SDZ012>016-024>037-041>051-057-063-072>074-231000-
SOUTHWEST AND SOUTH CENTRAL SOUTH DAKOTA

CITY           SKY/WX    TMP DP  RH WIND       PRES   REMARKS
RAPID CTY ARPT MOCLDY    54  43  66 S14       29.48F
PIERRE         CLOUDY    58  32  37 SE28G38   29.55F
CUSTER         MOCLDY    47  39  74 CALM      29.55F
ELLSWORTH AFB  CLOUDY    57  43  58 S17       29.46F
PHILIP         CLOUDY    60  37  42 SE20G31   29.48F
PINE RIDGE     MOCLDY    61  47  59 S25G37    29.48F
SPEARFISH      FAIR      64  39  39 S18G28    29.44F
WINNER         FAIR      58  32  37 SE17      29.64F
$$

SDZ004>011-016>023-039-040-231000-
NORTHEAST SOUTH DAKOTA

CITY           SKY/WX    TMP DP  RH WIND       PRES   REMARKS
ABERDEEN       CLOUDY    51  38  60 E28G36    29.76F
WATERTOWN      CLOUDY    50  34  54 SE14G25   29.88F
SISSETON         N/A     45  40  82 S13       29.93S
$$

SDZ017-020-022-023-036>040-048>070-231000-
SOUTHEAST SOUTH DAKOTA

CITY           SKY/WX    TMP DP  RH WIND       PRES   REMARKS
SIOUX FALLS    CLOUDY    52  35  52 SE16G25   29.89S
HURON          LGT RAIN  55  34  45 SE20G33   29.76F
CHAMBERLAIN      N/A     56  34  43 SE25G35   29.68F
MITCHELL       CLOUDY    52  38  58 SE23      29.80F
YANKTON        MOCLDY    55  30  38 SE20G25   29.85S
$$

ABBREVIATIONS USED IN REMARKS
   TC - TEMPERATURE IN CELSIUS
  WCI - WIND CHILL INDEX
   HX - HEAT INDEX
  VSB - VISIBILITY




USA.gov is the U.S. government's official web portal to all federal, state and local government web resources and services.